Weather History for Kankakee, IL

Change the Weather History Date:

Tuesday, September 27, 2011

  Actual Average Record
Temperature  
Mean Temperature 58 °F -  
Max Temperature 60 °F 73 °F 85 °F (1973)
Min Temperature 55 °F 46 °F 30 °F (1991)
Degree Days  
Heating Degree Days 8    
Growing Degree Days 8 (Base 50)    
Moisture  
Dew Point 53 °F    
Average Humidity 90    
Maximum Humidity 94    
Minimum Humidity 77    
Precipitation  
Precipitation 0.10 in - - ()
Sea Level Pressure  
Sea Level Pressure 29.66 in    
Wind  
Wind Speed 9 mph (SSE)    
Max Wind Speed 14 mph    
Max Gust Speed 21 mph    
Visibility 7 miles    
Events Rain    
Averages and records for this station are not official NWS values.
T = Trace of Precipitation, MM = Missing Value Source: NWS Daily Summary

Daily Weather History Graph

Daily Weather History Graph

Search for Another Location

Airport:

Trip Planner

Search our weather history database for the weather conditions in past years. The results will help you decide how hot, cold, wet, or windy it might be!

Date:

Astronomy

Sep. 27, 2011 Rise Set
Actual Time 6:43 AM CDT 6:40 PM CDT
Civil Twilight 6:16 AM CDT 7:07 PM CDT
Nautical Twilight 5:44 AM CDT 7:39 PM CDT
Astronomical Twilight 5:11 AM CDT 8:12 PM CDT
Moon 6:58 AM CDT (9/27) 6:30 PM CDT (9/27)
Length of Visible Light 12h 51m
Length of Day
11h 56m
New Moon, 0% of the Moon is Illuminated
Sep 27
New Moon
Oct 3
First Quarter
Oct 11
Full
Oct 19
Last Quarter
Oct 26
New

Hourly Weather History & Observations

Time (CDT) Temp. Dew Point Humidity Pressure Visibility Wind Dir Wind Speed Gust Speed Precip Events Conditions
12:15 AM 55.4 °F 53.6 °F 94% 29.67 in 5.0 mi SSE 13.8 mph - 0.01 in   Drizzle
12:35 AM 55.4 °F 53.6 °F 94% 29.67 in 3.0 mi SSE 8.1 mph 18.4 mph 0.04 in Rain Rain
12:55 AM 55.4 °F 53.6 °F 94% 29.66 in 5.0 mi SE 11.5 mph - N/A Rain Rain
1:15 AM 55.4 °F 53.6 °F 94% 29.65 in 4.0 mi SE 11.5 mph 17.3 mph 0.01 in Rain Rain
1:35 AM 55.4 °F 53.6 °F 94% 29.65 in 10.0 mi SSE 12.7 mph 19.6 mph 0.01 in   Overcast
1:55 AM 55.4 °F 53.6 °F 94% 29.65 in 10.0 mi SSE 11.5 mph 20.7 mph N/A   Overcast
2:15 AM 55.4 °F 53.6 °F 94% 29.64 in 7.0 mi SSE 10.4 mph - N/A Rain Rain
2:35 AM 57.2 °F 53.6 °F 88% 29.63 in 10.0 mi SSE 11.5 mph 18.4 mph N/A   Light Drizzle
2:55 AM 57.2 °F 53.6 °F 88% 29.63 in 10.0 mi South 8.1 mph 17.3 mph 0.02 in Rain Light Rain
3:15 AM 55.4 °F 53.6 °F 94% 29.63 in 7.0 mi SSE 11.5 mph 18.4 mph 0.02 in Rain Light Rain
3:35 AM 55.4 °F 53.6 °F 94% 29.63 in 10.0 mi SSE 9.2 mph - N/A Rain Light Rain
3:55 AM 55.4 °F 53.6 °F 94% 29.63 in 10.0 mi SSE 9.2 mph - N/A   Overcast
4:15 AM 55.4 °F 53.6 °F 94% 29.63 in 2.5 mi South 8.1 mph - 0.01 in Rain Heavy Rain
4:35 AM 55.4 °F 53.6 °F 94% 29.63 in 10.0 mi South 8.1 mph - N/A   Overcast
4:55 AM 55.4 °F 53.6 °F 94% 29.64 in 7.0 mi South 5.8 mph - N/A   Overcast
5:15 AM 55.4 °F 53.6 °F 94% 29.64 in 2.5 mi SSW 9.2 mph 16.1 mph 0.01 in   Heavy Drizzle
5:35 AM 55.4 °F 53.6 °F 94% 29.64 in 10.0 mi South 8.1 mph - N/A   Overcast
5:55 AM 55.4 °F 51.8 °F 88% 29.65 in 10.0 mi South 6.9 mph - N/A   Overcast
6:15 AM 55.4 °F 51.8 °F 88% 29.65 in 10.0 mi South 6.9 mph - N/A   Overcast
6:35 AM 55.4 °F 51.8 °F 88% 29.65 in 4.0 mi South 6.9 mph - N/A   Overcast
6:55 AM 55.4 °F 51.8 °F 88% 29.65 in 7.0 mi SSE 8.1 mph - 0.01 in Rain Light Rain
7:15 AM 55.4 °F 51.8 °F 88% 29.65 in 2.5 mi SSE 5.8 mph - 0.02 in   Drizzle
7:35 AM 55.4 °F 53.6 °F 94% 29.66 in 1.8 mi South 6.9 mph - N/A   Heavy Drizzle
7:55 AM 55.4 °F 53.6 °F 94% 29.66 in 5.0 mi SSE 6.9 mph - N/A Rain Light Rain
8:15 AM 55.4 °F 53.6 °F 94% 29.65 in 1.8 mi SSE 4.6 mph - N/A   Overcast
8:35 AM 55.4 °F 53.6 °F 94% 29.65 in 2.5 mi SE 4.6 mph - N/A   Overcast
8:55 AM 55.4 °F 53.6 °F 94% 29.66 in 3.0 mi SSE 5.8 mph - N/A   Overcast
9:15 AM 55.4 °F 53.6 °F 94% 29.67 in 2.0 mi SSE 3.5 mph - N/A Rain Light Rain
9:35 AM 55.4 °F 53.6 °F 94% 29.67 in 3.0 mi SE 4.6 mph - N/A   Light Drizzle
9:55 AM 57.2 °F 53.6 °F 88% 29.68 in 10.0 mi Calm Calm - N/A   Overcast
10:15 AM 57.2 °F 53.6 °F 88% 29.68 in 10.0 mi Calm Calm - N/A   Overcast
10:35 AM 59.0 °F 53.6 °F 82% 29.68 in 10.0 mi Calm Calm - N/A   Overcast
10:55 AM 60.8 °F 53.6 °F 77% 29.69 in 10.0 mi Calm Calm - N/A   Overcast
11:15 AM 60.8 °F 53.6 °F 77% 29.69 in 10.0 mi NE 3.5 mph - N/A   Scattered Clouds
11:35 AM 60.8 °F 53.6 °F 77% 29.70 in 10.0 mi WNW 3.5 mph - N/A   Mostly Cloudy
11:55 AM 60.8 °F 53.6 °F 77% 29.70 in 10.0 mi Calm Calm - N/A   Overcast